DW5425 Weather Reports


time (UTC)temp
F
wind
direction
speed
knots
gust
knots
rain 1hr
in
rain 24hr
in
rain mn
in
humidity
%
barometer
mb
20260510043504 52 82 0.0 0.9 0.00 0.18 0.00 87 1009.7
20260510043004 52 82 0.0 0.0 0.00 0.18 0.00 86 1009.7
20260510042003 53 82 0.0 0.0 0.00 0.18 0.00 86 1009.6
20260510041503 53 82 0.0 0.0 0.00 0.18 0.00 86 1009.7
20260510035503 53 82 0.0 0.0 0.00 0.18 0.18 85 1009.6
20260510035003 53 82 0.0 0.0 0.00 0.18 0.18 85 1009.7
20260510033504 53 82 0.0 0.0 0.00 0.18 0.18 85 1009.7
20260510031504 54 82 0.0 0.0 0.00 0.18 0.18 83 1009.8
20260510025503 55 82 0.0 0.0 0.00 0.18 0.18 82 1009.7
20260510024003 55 82 0.0 0.0 0.00 0.18 0.18 81 1009.6
20260510023504 56 82 0.0 0.0 0.00 0.18 0.18 81 1009.6
20260510023003 56 82 0.0 0.9 0.00 0.18 0.18 80 1009.6
20260510022504 56 82 0.0 0.0 0.00 0.18 0.18 80 1009.7
20260510021503 56 82 0.0 0.0 0.00 0.18 0.18 80 1009.6
20260510020004 57 82 0.0 0.0 0.00 0.18 0.18 79 1009.5
20260510015004 57 82 0.0 0.0 0.00 0.18 0.18 79 1009.3
20260510014504 57 82 0.0 0.0 0.00 0.18 0.18 78 1009.2
20260510013504 58 82 0.0 0.0 0.00 0.18 0.18 77 1009.1
20260510013004 58 82 0.0 0.0 0.00 0.18 0.18 77 1009.0
20260510012003 58 82 0.0 1.7 0.00 0.18 0.18 76 1009.0
20260510011504 58 111 0.9 2.6 0.00 0.18 0.18 76 1008.9
20260510010504 59 114 1.7 2.6 0.00 0.18 0.18 75 1008.9
20260510010004 59 109 0.9 2.6 0.00 0.18 0.18 75 1008.7
20260510003004 60 126 0.9 5.2 0.00 0.18 0.18 72 1008.5
20260510002004 61 144 0.0 0.9 0.00 0.18 0.18 71 1008.6
20260510001504 61 144 0.0 0.9 0.00 0.18 0.18 71 1008.5
20260510001003 61 144 0.0 0.0 0.00 0.18 0.18 70 1008.4
20260510000003 62 144 0.9 2.6 0.00 0.18 0.18 69 1008.1
20260509235503 62 144 0.9 2.6 0.00 0.18 0.18 69 1008.0
20260509234004 62 140 1.7 2.6 0.00 0.18 0.18 68 1008.1
20260509233004 63 153 0.9 2.6 0.00 0.18 0.18 67 1008.1
20260509232003 63 149 0.0 0.9 0.00 0.18 0.18 68 1008.0
20260509231003 63 140 1.7 4.3 0.00 0.18 0.18 68 1008.0
20260509225003 63 165 2.6 6.1 0.00 0.18 0.18 69 1008.0
20260509223004 62 134 1.7 4.3 0.00 0.18 0.18 69 1008.1
20260509221504 62 123 1.7 6.1 0.00 0.18 0.18 70 1008.1
20260509213503 62 98 0.0 1.7 0.00 0.18 0.18 73 1008.4
20260509213003 61 101 1.7 4.3 0.00 0.18 0.18 73 1008.5
20260509212003 61 108 2.6 6.1 0.00 0.18 0.18 74 1008.6
20260509211503 61 122 1.7 6.1 0.00 0.18 0.18 74 1008.6
20260509211004 61 105 1.7 5.2 0.00 0.18 0.18 75 1008.7
20260509210004 60 154 1.7 4.3 0.00 0.18 0.18 76 1008.8
20260509205503 60 127 1.7 2.6 0.00 0.18 0.18 78 1008.8
20260509205004 59 123 0.0 0.9 0.00 0.18 0.18 78 1008.9
20260509204504 59 123 0.9 4.3 0.00 0.18 0.18 79 1009.0
20260509202503 58 344 0.9 2.6 0.00 0.18 0.18 81 1009.3
20260509201004 58 331 1.7 2.6 0.00 0.18 0.18 81 1009.2
20260509200503 58 326 1.7 2.6 0.00 0.18 0.18 81 1009.0
20260509200004 58 0 1.7 2.6 0.00 0.18 0.18 81 1008.8
20260509195003 58 51 0.9 2.6 0.00 0.18 0.18 80 1008.8
20260509194503 59 36 0.9 4.3 0.00 0.18 0.18 80 1009.0
20260509193003 60 340 0.0 1.7 0.00 0.18 0.18 77 1009.3
20260509192505 60 21 0.9 2.6 0.00 0.18 0.18 78 1009.1
20260509191503 60 100 0.9 2.6 0.00 0.18 0.18 75 1009.2
20260509185504 59 53 0.9 2.6 0.00 0.18 0.18 78 1009.6
20260509185004 59 259 0.9 1.7 0.00 0.18 0.18 79 1009.9
20260509184504 59 259 0.0 0.9 0.00 0.18 0.18 80 1009.9
20260509183503 59 259 0.9 1.7 0.00 0.18 0.18 81 1010.1
20260509181504 58 189 0.0 0.9 0.00 0.18 0.18 85 1010.0
20260509180503 57 121 0.9 2.6 0.00 0.18 0.18 84 1009.8
20260509180004 56 165 0.0 0.9 0.00 0.18 0.18 86 1009.7
20260509175503 56 165 0.0 0.9 0.00 0.18 0.18 86 1009.8
20260509175004 56 165 0.0 1.7 0.00 0.18 0.18 87 1010.0
20260509174004 55 165 0.0 1.7 0.00 0.18 0.18 86 1010.1
20260509173003 55 186 0.0 1.7 0.00 0.18 0.18 87 1010.3
20260509170504 54 138 0.0 0.9 0.01 0.18 0.18 87 1010.6
20260509165503 54 146 0.0 1.7 0.02 0.18 0.18 88 1010.6
20260509165003 54 137 1.7 2.6 0.02 0.18 0.18 87 1010.7
20260509164504 54 161 0.0 1.7 0.03 0.18 0.18 88 1010.7
20260509163504 54 161 0.9 2.6 0.04 0.18 0.18 87 1010.7
20260509163004 54 162 1.7 2.6 0.06 0.18 0.18 87 1010.6
20260509161003 53 97 1.7 5.2 0.10 0.17 0.17 87 1010.0
20260509160504 53 112 1.7 5.2 0.11 0.17 0.17 86 1009.9
20260509160004 53 23 1.7 2.6 0.12 0.16 0.16 87 1009.8
20260509154503 53 76 0.0 1.7 0.13 0.15 0.15 86 1010.4
20260509154003 53 105 0.0 1.7 0.12 0.14 0.14 85 1010.7
20260509152504 53 157 0.0 1.7 0.10 0.11 0.11 84 1011.3
20260509151004 53 157 0.0 2.6 0.07 0.07 0.07 83 1011.5
20260509150504 54 155 0.0 0.9 0.06 0.06 0.06 82 1011.4
20260509150003 54 155 0.9 2.6 0.04 0.04 0.04 82 1011.3
20260509145504 54 171 0.0 1.7 0.04 0.04 0.04 82 1011.2
20260509145004 54 172 0.0 0.0 0.03 0.03 0.03 81 1011.2
20260509144003 54 164 0.0 1.7 0.02 0.02 0.02 80 1011.1
20260509143003 55 164 0.0 0.0 0.02 0.02 0.02 80 1010.8
20260509142503 54 164 0.0 0.0 0.01 0.01 0.01 78 1010.9
20260509142004 55 164 0.0 4.3 0.00 0.00 0.00 77 1010.9
20260509135504 55 140 0.9 2.6 0.00 0.00 0.00 73 1010.6
20260509134503 55 265 0.9 2.6 0.00 0.00 0.00 73 1010.7
20260509134003 55 247 0.0 1.7 0.00 0.00 0.00 74 1010.7
20260509133504 55 138 0.0 0.0 0.00 0.00 0.00 74 1010.6
20260509133004 55 138 0.0 2.6 0.00 0.00 0.00 75 1010.6
20260509132504 54 109 0.9 4.3 0.00 0.00 0.00 75 1010.6
20260509132003 54 158 0.9 2.6 0.00 0.00 0.00 75 1010.5
20260509130504 54 156 0.0 0.9 0.00 0.00 0.00 77 1010.4
20260509130004 54 154 0.0 1.7 0.00 0.00 0.00 78 1010.3
20260509125003 54 37 0.0 0.0 0.00 0.00 0.00 77 1010.1
20260509124504 54 37 0.0 0.0 0.00 0.00 0.00 77 1010.0
20260509123503 54 315 0.9 2.6 0.00 0.00 0.00 77 1009.9
20260509123004 54 4 0.9 2.6 0.00 0.00 0.00 77 1010.0
20260509122504 54 5 1.7 2.6 0.00 0.00 0.00 76 1010.3
20260509122003 54 5 0.0 0.9 0.00 0.00 0.00 76 1010.5
20260509121503 54 5 0.0 0.9 0.00 0.00 0.00 75 1010.7
20260509120504 54 5 0.0 0.0 0.00 0.00 0.00 76 1010.7
20260509120003 54 5 0.0 0.0 0.00 0.00 0.00 76 1010.6
20260509115004 54 5 0.0 0.0 0.00 0.00 0.00 76 1010.3
20260509113504 53 55 0.0 2.6 0.00 0.00 0.00 76 1010.1
20260509113004 53 61 0.9 2.6 0.00 0.00 0.00 76 1010.3
20260509112003 53 272 1.7 2.6 0.00 0.00 0.00 76 1010.3
20260509111503 53 256 0.9 2.6 0.00 0.00 0.00 76 1010.1
20260509111005 53 256 0.0 1.7 0.00 0.00 0.00 75 1010.1
20260509110004 53 302 0.0 0.0 0.00 0.00 0.00 75 1009.9
20260509102003 53 134 0.0 0.0 0.00 0.00 0.00 74 1009.8
20260509095504 53 134 0.0 2.6 0.00 0.00 0.00 74 1009.7
20260509095003 53 44 0.0 2.6 0.00 0.00 0.00 74 1009.6
20260509094504 53 96 0.9 2.6 0.00 0.00 0.00 74 1009.6
20260509092003 53 102 1.7 5.2 0.00 0.00 0.00 73 1009.7
20260509091504 53 100 3.5 7.0 0.00 0.00 0.00 73 1009.8
20260509090503 54 103 2.6 5.2 0.00 0.00 0.00 72 1009.7
20260509084004 54 100 0.9 2.6 0.00 0.00 0.00 71 1009.9
20260509081504 54 108 1.7 2.6 0.00 0.00 0.00 71 1010.1
20260509081004 54 101 0.9 4.3 0.00 0.00 0.00 71 1010.0
20260509074504 54 88 0.0 2.6 0.00 0.00 0.00 69 1010.1
20260509074004 54 52 0.9 1.7 0.00 0.00 0.00 69 1010.1
20260509073505 54 119 0.0 1.7 0.00 0.00 0.00 69 1010.2
20260509072503 54 91 0.9 1.7 0.00 0.00 0.00 70 1010.3
20260509072003 54 105 0.0 2.6 0.00 0.00 0.00 70 1010.2
20260509071504 54 48 0.0 0.9 0.00 0.00 0.00 70 1010.3
20260509065003 54 30 0.0 1.7 0.00 0.00 0.00 69 1010.5
20260509064004 55 22 0.0 0.9 0.00 0.00 0.00 69 1010.6
20260509063004 55 22 0.0 0.0 0.00 0.00 0.00 68 1010.7
20260509062003 55 44 0.0 0.9 0.00 0.00 0.00 68 1010.7
20260509061504 55 25 0.0 1.7 0.00 0.00 0.00 69 1010.7
20260509061003 55 52 1.7 4.3 0.00 0.00 0.00 69 1010.7
20260509060503 55 16 1.7 5.2 0.00 0.00 0.00 69 1010.6
20260509060004 55 356 0.9 4.3 0.00 0.00 0.00 70 1010.6
20260509055504 55 25 1.7 2.6 0.00 0.00 0.00 70 1010.6
20260509054504 55 26 1.7 4.3 0.00 0.00 0.00 71 1010.7
20260509053003 55 39 0.9 2.6 0.00 0.00 0.00 71 1010.7
20260509052503 56 42 0.0 1.7 0.00 0.00 0.00 71 1010.7
20260509052004 56 17 0.0 0.9 0.00 0.00 0.00 72 1010.7
20260509051504 56 9 0.0 1.7 0.00 0.00 0.00 72 1010.8
20260509051003 56 31 0.0 0.9 0.00 0.00 0.00 71 1010.8
20260509050004 56 94 0.0 0.9 0.00 0.00 0.00 70 1011.0